Regional Weather Roundup
Issued by NWS

Home | Current Version | Previous Version | Text Only | Print | Product List | Glossary On
Versions: 1 2 3 4 5 6 7 8 9 10 11 12 13 14 15 16 17 18 19 20 21 22 23 24 25 26 27 28
000
ASUS42 KTBW 291316
RWRFL
FLORIDA REGIONAL WEATHER ROUNDUP
NATIONAL WEATHER SERVICE TAMPA BAY RUSKIN FL
900 AM EDT SUN MAY 29 2016

NOTE: "FAIR" INDICATES FEW OR NO CLOUDS BELOW 12,000 FEET WITH NO
SIGNIFICANT WEATHER AND/OR OBSTRUCTIONS TO VISIBILITY.

FLZ001>010-012>015-112-114-115-291400-
PANHANDLE FLORIDA

CITY           SKY/WX    TMP DP  RH WIND       PRES   REMARKS
PENSACOLA      SUNNY     78  67  68 N7        30.10R
MILTON NAS     SUNNY     76  69  79 N5        30.11
CRESTVIEW      SUNNY     76  67  73 N6        30.12R
DUKE FIELD     FAIR      76  67  73 N8        30.09R
VALPARAISO     MOSUNNY   77  67  70 N5        30.09R
PANAMA CITY    FAIR      77  67  71 NW9       30.08R
TYNDALL AFB    SUNNY     77  68  72 N7        30.09R
APALACHICOLA   SUNNY     78  72  81 NE5       30.08R

STATION/POSITION SKY/WX   TEMP    WIND        PRES    WAVE   SWELL
                          AIR SEA DIR/SP/G            HT/PER HT/PER
                          (F)     (DEG/KT/KT) (MB)    (FT/S) (FT/S)
30.1N   87.6W              78 80   CALM  /  2 1018.6R   1/ 5
29.2N   88.2W              78 79   70/  4/  6 1018.5R
28.8N   86.0W              79 80   20/  8/ 10 1018.9R   1/ 6
PANAMA CITY BEAC           72 79  350/  5/  7 1018.8R
TOWER C                    77     360/  5/  5 1019.1R
28.5N   84.5W              78 78   30/  8/  8 1018.3R   1/ 3

$$
FLZ011-016>038-118-127-128-134-139-239-291400-
NORTH FLORIDA

CITY           SKY/WX    TMP DP  RH WIND       PRES   REMARKS
MARIANNA       SUNNY     76  69  79 VRB6      30.09R
TALLAHASSEE    MOSUNNY   79  68  69 E7        30.09R
PERRY          SUNNY     77  69  75 E3        30.09R
LIVE OAK       FAIR      77  70  78 CALM      30.11S
CROSS CITY       N/A     79  68  69 NE5       30.08R
LAKE CITY      FAIR      72  68  88 CALM      30.10R
GAINESVILLE    SUNNY     76  69  79 CALM      30.09R
WILLISTON      FAIR      79  70  73 CALM      30.09R
PALATKA        FAIR      75  75 100 CALM      30.09R
MAYPORT NAS    SUNNY     75  66  73 VRB6      30.07R
JACKSONVILLE   MOSUNNY   73  67  81 W6        30.07R
JAX NAS        MOSUNNY   76  65  68 W5        30.09R
JAX CECIL      SUNNY     73  66  78 NW5       30.09R
FERNANDINA BEA FAIR      77  66  69 NW8       30.06R
PALM COAST     SUNNY     73  72  94 W6        30.08R

STATION/POSITION SKY/WX   TEMP    WIND        PRES    WAVE   SWELL
                          AIR SEA DIR/SP/G            HT/PER HT/PER
                          (F)     (DEG/KT/KT) (MB)    (FT/S) (FT/S)
SHELL POINT                76      40/  3/  6 1017.0
KEATON BEACH               76     100/  7/  9 1018.4R
CEDAR KEY                  76     120/  7/  8 1018.5R
FERNANDINA                 70 80  280/  6/  8 1017.7R
30.7N   81.3W                 78                N/A     3/ 9
MAYPORT                    72 79  300/  9/ 10 1017.9R
31.4N   80.9W              72 75  270/ 19/ 23 1016.0R   4/ 4   2/ 9
ST AUGUSTINE               74 78  320/  9/ 10 1019.2R

$$
FLZ040-043>046-052-053-057-058-063-144-291400-
INTERIOR CENTRAL FLORIDA

CITY           SKY/WX    TMP DP  RH WIND       PRES   REMARKS
OCALA          SUNNY     77  66  69 CALM      30.09R
THE VILLAGES     N/A     79  70  73 CALM      29.99R
LEESBURG       SUNNY     79  70  74 CALM      30.08S
SANFORD        SUNNY     79  68  69 CALM      30.08R
ORLANDO EXEC   SUNNY     80  70  71 CALM      30.08R
ORLANDO INTL   MOSUNNY   78  68  71 CALM      30.07S
KISSIMMEE      SUNNY     79  72  78 CALM      30.09R
WINTER HAVEN   SUNNY     79  70  74 VRB3      30.09R
LAKELAND       SUNNY     79  73  83 CALM      30.08R
BARTOW         MOSUNNY   77  73  88 CALM      30.09R
OKEECHOBEE     CLOUDY    75  73  94 CALM      30.08R

$$
FLZ041-047-054-059-064-141-147-291400-
EAST CENTRAL FLORIDA

CITY           SKY/WX    TMP DP  RH WIND       PRES   REMARKS
ORMOND BEACH   MOSUNNY   73  70  88 W9        30.08R
DAYTONA BEACH  MOSUNNY   77  71  82 NW6       30.07S
DELAND           N/A     77  68  73 CALM      30.09S
NEW SMYRNA BEA MOSUNNY   75  70  83 W6        30.07R
JFK SPACE CTR  SUNNY     78  71  77 CALM      30.07R
TITUSVILLE     SUNNY     77  75  94 CALM      30.08R
CAPE CANAVERAL SUNNY     79  70  73 CALM      30.06R
PATRICK AFB    SUNNY     80  72  75 NW2       30.07R
MELBOURNE      MOSUNNY   80  72  76 E3        30.07R
VERO BEACH     PTSUNNY   82  73  74 VRB3      30.08R
FT PIERCE      CLOUDY    80  72  76 CALM      30.07R
STUART         MOSUNNY   79  75  89 CALM      30.09R

STATION/POSITION SKY/WX   TEMP    WIND        PRES    WAVE   SWELL
                          AIR SEA DIR/SP/G            HT/PER HT/PER
                          (F)     (DEG/KT/KT) (MB)    (FT/S) (FT/S)
28.5N   80.2W              77 79  290/  4/  4 1018.2R
28.9N   78.5W              79 79  240/ 10/ 10 1017.5R
TRIDENT PIER               78 81   CALM  /  2 1017.7R
28.4N   80.5W                 81                N/A     2/ 8
27.5N   80.2W                 80                N/A     3/ 8   2/11

$$
FLZ050-056-061-142-242-148-248-149-249-151-251-155-255-
160-260-291400-
WEST CENTRAL FLORIDA

CITY           SKY/WX    TMP DP  RH WIND       PRES   REMARKS
CRYSTAL RIVER  FAIR      79  70  73 CALM      30.08S
INVERNESS      FAIR      79  72  78 SE3       30.09R
BROOKSVILLE    MOSUNNY   78  70  76 SE7       30.09R
ZEPHYRHILLS    FAIR      76  67  74 CALM      30.09R
CLEARWATER AIR FAIR      77  72  83 E3        30.07R
ST PETE CLEARW MOSUNNY   80  73  79 E5        30.07R
TAMPA INTL     MOSUNNY   79  71  76 VRB3      30.08R
TAMPA EXEC     SUNNY     81  72  74 CALM      30.08S
PLANT CITY     SUNNY     79  75  89 CALM      30.09S
MACDILL AFB    SUNNY     81  75  82 VRB5      30.07R
PETER O KNIGHT SUNNY     81  73  78 SE5       30.08R
ST PETERSBURG  SUNNY     78  72  81 CALM      30.06R
SARASOTA       PTSUNNY   79  71  76 SE3       30.06R
VENICE         NOT AVBL

STATION/POSITION SKY/WX   TEMP    WIND        PRES    WAVE   SWELL
                          AIR SEA DIR/SP/G            HT/PER HT/PER
                          (F)     (DEG/KT/KT) (MB)    (FT/S) (FT/S)
27.3N   84.2W                 81                N/A     1/ 6
CLEARWATER BEACH           78 82   90/  4/  5 1018.0R
MIDDLE TAMPA BAY NOT AVBL
VENICE                     77 80  120/  3/  4 1017.9R

$$
FLZ066-069-070-075>078-162-262-165-265-291400-
SOUTHWEST FLORIDA AND KEYS

CITY           SKY/WX    TMP DP  RH WIND       PRES   REMARKS
PUNTA GORDA    SUNNY     78  72  81 E5        30.08R
FT MYERS       SUNNY     80  71  74 SE3       30.06R
SOUTHWEST INTL SUNNY     81  71  71 E6        30.06R
NAPLES         MOSUNNY   81  71  71 E9        30.06R
MARCO ISLAND   SUNNY     81  68  65 NE5       30.07R
MARATHON       SUNNY     84  69  60 CALM      30.04R
KEY WEST NAS   MOSUNNY   83  71  67 E5        30.05R
KEY WEST INTL  SUNNY     84  71  65 E5        30.05R

STATION/POSITION SKY/WX   TEMP    WIND        PRES    WAVE   SWELL
                          AIR SEA DIR/SP/G            HT/PER HT/PER
                          (F)     (DEG/KT/KT) (MB)    (FT/S) (FT/S)
NAPLES                        83              1017.5R
26.0N   85.6W              81 81  100/  2/  4 1018.5R   1/ 4   2/ 4
DRY TORTUGAS               81      90/  8/  8 1017.6R
SAND KEY                   81     100/  5/  7 1017.9R
LONG KEY                   84 84  110/  2/  3 1017.5R
MOLASSES REEF              82 84  120/  4/  5 1017.9R

$$
FLZ067-068-071>074-168-172>174-291400-
SOUTHEAST FLORIDA

CITY           SKY/WX    TMP DP  RH WIND       PRES   REMARKS
W PALM BEACH   MOSUNNY   82  71  69 N3        30.08R
BOCA RATON     MOSUNNY   81  73  78 N6        30.06R
FT LAUDER-EXEC MOSUNNY   81  71  71 VRB3      30.06R
FT LAUDERDALE  MOSUNNY   81  72  74 NW6       30.06R
POMPANO BEACH  MOSUNNY   80  72  76 N3        30.06R
PEMBROKE PINES SUNNY     82  73  74 N3        30.07R
OPA LOCKA      SUNNY     82  72  71 NW3       30.07R
MIAMI          MOSUNNY   82  72  71 NE3       30.06R
WEST KENDALL   SUNNY     82  72  71 N3        30.06R
HOMESTEAD      SUNNY     82  72  73 VRB3      30.05R

STATION/POSITION SKY/WX   TEMP    WIND        PRES    WAVE   SWELL
                          AIR SEA DIR/SP/G            HT/PER HT/PER
                          (F)     (DEG/KT/KT) (MB)    (FT/S) (FT/S)
PORT EVERGLADES            78     330/  6/  8 1017.5R
VIRGINIA KEY               80 81  340/  3/  4 1017.7R
LAKE WORTH                 78 82  300/  3/  4 1017.6R
FOWEY ROCKS                81 81     CALM     1018.4R
SETTLEMENT POINT           81      10/  2/  3 1018.9R

$$





USA.gov is the U.S. government's official web portal to all federal, state and local government web resources and services.